Location: Unspecified
(0.0000°N, 0.0000°E)
Time: 03:43:54
(UTC+02:00)

HO-68 - Visible Passes

Search period start: 28 September 2016 00:00
Search period end: 08 October 2016 00:00
Orbit: 1192 x 1205 km, 100.1° (Epoch: 26 September)

Date Brightness Start Highest point End Pass type
(mag) Time Alt. Az. Time Alt. Az. Time Alt. Az.
28 Sep ? 21:13:52 10° SSE 21:20:52 55° ENE 21:27:48 10° N visible
28 Sep ? 23:04:16 10° SW 23:08:11 16° WSW 23:12:08 10° WNW visible
29 Sep ? 20:57:26 10° SE 21:04:00 39° ENE 21:10:31 10° N visible
29 Sep ? 22:45:59 10° SSW 22:51:23 23° WSW 22:56:46 10° NW visible
30 Sep ? 20:41:18 10° SE 20:47:09 27° ENE 20:52:57 10° NNE visible
30 Sep ? 22:28:16 10° SSW 22:34:33 33° WSW 22:40:48 10° NW visible
01 Oct ? 20:25:38 10° ESE 20:30:19 19° ENE 20:34:58 10° NE visible
01 Oct ? 22:10:52 10° S 22:17:41 47° WSW 22:24:29 10° NNW visible
02 Oct ? 20:11:00 10° E 20:13:29 12° ENE 20:15:58 10° NE visible
02 Oct ? 21:53:42 10° S 22:00:50 67° WSW 22:07:55 10° NNW visible
03 Oct ? 21:36:45 10° SSE 21:43:58 88° ENE 21:51:09 10° NNW visible
04 Oct ? 21:20:01 10° SSE 21:27:06 64° ENE 21:34:09 10° N visible
04 Oct ? 23:11:28 10° SW 23:14:25 13° WSW 23:17:23 10° W visible
05 Oct ? 21:03:28 10° SE 21:10:15 45° ENE 21:16:58 10° N visible
05 Oct ? 22:52:44 10° SSW 22:57:36 20° WSW 23:02:29 10° WNW visible
06 Oct ? 20:47:13 10° SE 20:53:23 31° ENE 20:59:31 10° NNE visible
06 Oct ? 22:34:50 10° SSW 22:40:46 29° WSW 22:46:43 10° NW visible
07 Oct ? 20:31:19 10° ESE 20:36:33 22° ENE 20:41:43 10° NNE visible
07 Oct ? 22:17:18 10° S 22:23:55 41° WSW 22:30:32 10° NW visible
